Regional Weather Roundup
Issued by NWS

Home | Current Version | Previous Version | Text Only | Print | Product List | Glossary Off
Versions: 1 2 3 4 5 6 7 8 9 10 11 12 13 14 15 16 17 18 19 20 21 22 23 24 25 26 27 28

000
ASUS45 KSLC 252210
RWRUT

UTAH REGIONAL WEATHER ROUNDUP
NATIONAL WEATHER SERVICE SALT LAKE CITY UT
400 PM MDT MON SEP 25 2017

UTZ001>011-023>025-252300-

NORTHERN UTAH

CITY           SKY/WX    TMP DP  RH WIND       PRES   REMARKS
BRIGHAM CITY   SUNNY     58  33  38 W7        30.11S
DUGWAY         PTSUNNY   58  30  34 N6        30.10S
HILL AFB       PTSUNNY   56  36  47 W10       30.11S
LOGAN          PTSUNNY   58  33  39 NW8       30.10S
OGDEN          SUNNY     57  37  47 NW9       30.10S
SALT LAKE CITY MOSUNNY   60  32  34 W7        30.10S
TOOELE VALLEY  PTSUNNY   57  32  38 N7        30.11S
WENDOVER       PTSUNNY   58  31  35 E5        30.11S
HEBER CITY     MOSUNNY   52  32  46 N8        30.10S
WEST JORDAN    SUNNY     57  42  56 NW10      30.11S

$$

UTZ011>015-024>027-252300-

CENTRAL/NORTHEAST UTAH

CITY           SKY/WX    TMP DP  RH WIND       PRES   REMARKS
PROVO AIRPORT  MOSUNNY   57  37  47 SW5       30.11S
MOAB/CANYONLAN SUNNY     64  28  25 VRB5      30.00F
DELTA          MOSUNNY   55  30  38 CALM      30.09S
PRICE          PTSUNNY   56  27  32 E3        30.06S
ROOSEVELT      MOSUNNY   55  32  41 SE3       30.11S
VERNAL         CLOUDY    53  34  48 N7        30.10S

$$

UTZ013>016-019>022-027-252300-

SOUTHERN UTAH

CITY           SKY/WX    TMP DP  RH WIND       PRES   REMARKS
BRYCE CANYON   SUNNY     57  14  18 MISG      30.08F
CEDAR CITY     SUNNY     61  33  35 N15G23    30.04S
MILFORD        SUNNY     59  32  36 N17G23    30.06F
ST GEORGE      PTCLDY    73  27  18 VRB5      29.93F
HANKSVILLE     SUNNY     64  27  24 N8        30.04F
BLANDING         N/A     64  26  24 SW6       30.09S

$$

REGIONAL REPORTS     COLORADO/ARIZONA

CITY           SKY/WX    TMP DP  RH WIND       PRES   REMARKS
CRAIG, CO      MOSUNNY   53  24  32 W6        30.09S
GRAND JUNCTION SUNNY     64  23  21 NW9       30.01F
RIFLE, CO      MOSUNNY   63  27  25 NW10G16   30.01F
MONTROSE, CO   SUNNY     60  24  25 NW9       30.05S
CORTEZ, CO     SUNNY     63  23  21 MISG      30.02F
PAGE, AZ       SUNNY     69  25  19 NE10      29.96F
GRAND CANYON   MOSUNNY   62  19  19 NE8       30.03F
KINGMAN, AZ    MOSUNNY   75  25  15 N9        29.90F
FLAGSTAFF, AZ  SUNNY     61   8  12 VRB3      30.04F

$$

REGIONAL REPORTS    NEVADA/IDAHO/WYOMING

CITY           SKY/WX    TMP DP  RH WIND       PRES   REMARKS
LAS VEGAS, NV  MOSUNNY   76  26  15 CALM      29.89F
ELY, NY        SUNNY     56  26  31 N10       30.10F
ELKO, NV       MOSUNNY   60  26  27 N5        30.09F
POCATELLO, ID  CLOUDY    57  30  35 VRB5      30.12F
BURLEY, ID     MOSUNNY   59  30  33 W6        30.09F
FORT BRIDGER,  CLOUDY    48  30  50 W9        30.17R
EVANSTON, WY   CLOUDY    44  29  55 SW6       30.14S
ROCK SPRINGS,  CLOUDY    46  29  51 NW10      30.12S

$$




USA.gov is the U.S. government's official web portal to all federal, state and local government web resources and services.